Year,Month,Day,Hour,Minute,Value (Times are PST for temperature in C)
2008,02,17,00,00,2.90
2008,02,17,00,01,2.90
2008,02,17,00,02,2.90
2008,02,17,00,03,2.90
2008,02,17,00,04,2.90
2008,02,17,00,05,2.90
2008,02,17,00,06,2.90
2008,02,17,00,07,2.90
2008,02,17,00,08,2.80
2008,02,17,00,09,2.80
2008,02,17,00,10,2.80
2008,02,17,00,11,2.80
2008,02,17,00,12,2.80
2008,02,17,00,13,2.80
2008,02,17,00,14,2.80
2008,02,17,00,15,2.80
2008,02,17,00,16,2.80
2008,02,17,00,17,2.80
2008,02,17,00,18,2.70
2008,02,17,00,19,2.70
2008,02,17,00,20,2.70
2008,02,17,00,21,2.70
2008,02,17,00,22,2.70
2008,02,17,00,23,2.70
2008,02,17,00,24,2.70
2008,02,17,00,25,2.70
2008,02,17,00,26,2.60
2008,02,17,00,27,2.60
2008,02,17,00,28,2.60
2008,02,17,00,29,2.60
2008,02,17,00,30,2.60
2008,02,17,00,31,2.50
2008,02,17,00,32,2.50
2008,02,17,00,33,2.50
2008,02,17,00,34,2.40
2008,02,17,00,35,2.40
2008,02,17,00,36,2.40
2008,02,17,00,37,2.40
2008,02,17,00,38,2.30
2008,02,17,00,39,2.30
2008,02,17,00,40,2.30
2008,02,17,00,41,2.20
2008,02,17,00,42,2.20
2008,02,17,00,43,2.10
2008,02,17,00,44,2.10
2008,02,17,00,45,2.10
2008,02,17,00,46,2.10
2008,02,17,00,47,2.00
2008,02,17,00,48,2.00
2008,02,17,00,49,1.90
2008,02,17,00,50,1.90
2008,02,17,00,51,1.90
2008,02,17,00,52,1.90
2008,02,17,00,53,1.90
2008,02,17,00,54,1.80
2008,02,17,00,55,1.80
2008,02,17,00,56,1.80
2008,02,17,00,57,1.80
2008,02,17,00,58,1.80
2008,02,17,00,59,1.80
2008,02,17,01,00,1.70
2008,02,17,01,01,1.70
2008,02,17,01,02,1.70
2008,02,17,01,03,1.70
2008,02,17,01,04,1.70
2008,02,17,01,05,1.70
2008,02,17,01,06,1.70
2008,02,17,01,07,1.70
2008,02,17,01,08,1.70
2008,02,17,01,09,1.70
2008,02,17,01,10,1.70
2008,02,17,01,11,1.60
2008,02,17,01,12,1.60
2008,02,17,01,13,1.60
2008,02,17,01,14,1.60
2008,02,17,01,15,1.50
2008,02,17,01,16,1.50
2008,02,17,01,17,1.40
2008,02,17,01,18,1.40
2008,02,17,01,19,1.30
2008,02,17,01,20,1.30
2008,02,17,01,21,1.30
2008,02,17,01,22,1.30
2008,02,17,01,23,1.30
2008,02,17,01,24,1.30
2008,02,17,01,25,1.30
2008,02,17,01,26,1.30
2008,02,17,01,27,1.30
2008,02,17,01,28,1.30
2008,02,17,01,29,1.30
2008,02,17,01,30,1.30
2008,02,17,01,31,1.30
2008,02,17,01,32,1.30
2008,02,17,01,33,1.30
2008,02,17,01,34,1.30
2008,02,17,01,35,1.30
2008,02,17,01,36,1.20
2008,02,17,01,37,1.20
2008,02,17,01,38,1.20
2008,02,17,01,39,1.20
2008,02,17,01,40,1.20
2008,02,17,01,41,1.10
2008,02,17,01,42,1.10
2008,02,17,01,43,1.10
2008,02,17,01,44,1.10
2008,02,17,01,45,1.10
2008,02,17,01,46,1.10
2008,02,17,01,47,1.10
2008,02,17,01,48,1.10
2008,02,17,01,49,1.10
2008,02,17,01,50,1.10
2008,02,17,01,51,1.10
2008,02,17,01,52,1.10
2008,02,17,01,53,1.10
2008,02,17,01,54,1.10
2008,02,17,01,55,1.00
2008,02,17,01,56,1.00
2008,02,17,01,57,1.00
2008,02,17,01,58,1.00
2008,02,17,01,59,1.10
2008,02,17,02,00,1.00
2008,02,17,02,01,1.00
2008,02,17,02,02,1.00
2008,02,17,02,03,0.90
2008,02,17,02,04,1.00
2008,02,17,02,05,1.10
2008,02,17,02,06,1.10
2008,02,17,02,07,1.10
2008,02,17,02,08,1.00
2008,02,17,02,09,1.00
2008,02,17,02,10,1.00
2008,02,17,02,11,1.00
2008,02,17,02,12,0.90
2008,02,17,02,13,0.90
2008,02,17,02,14,0.90
2008,02,17,02,15,0.90
2008,02,17,02,16,0.90
2008,02,17,02,17,0.90
2008,02,17,02,18,0.90
2008,02,17,02,19,0.90
2008,02,17,02,20,0.90
2008,02,17,02,21,0.90
2008,02,17,02,22,0.90
2008,02,17,02,23,0.80
2008,02,17,02,24,0.80
2008,02,17,02,25,0.80
2008,02,17,02,26,0.80
2008,02,17,02,27,0.80
2008,02,17,02,28,0.80
2008,02,17,02,29,0.80
2008,02,17,02,30,0.80
2008,02,17,02,31,0.80
2008,02,17,02,32,0.80
2008,02,17,02,33,0.70
2008,02,17,02,34,0.70
2008,02,17,02,35,0.70
2008,02,17,02,36,0.70
2008,02,17,02,37,0.70
2008,02,17,02,38,0.70
2008,02,17,02,39,0.60
2008,02,17,02,40,0.60
2008,02,17,02,41,0.60
2008,02,17,02,42,0.60
2008,02,17,02,43,0.60
2008,02,17,02,44,0.60
2008,02,17,02,45,0.60
2008,02,17,02,46,0.50
2008,02,17,02,47,0.50
2008,02,17,02,48,0.50
2008,02,17,02,49,0.40
2008,02,17,02,50,0.40
2008,02,17,02,51,0.40
2008,02,17,02,52,0.40
2008,02,17,02,53,0.40
2008,02,17,02,54,0.40
2008,02,17,02,55,0.40
2008,02,17,02,56,0.40
2008,02,17,02,57,0.40
2008,02,17,02,58,0.40
2008,02,17,02,59,0.40
2008,02,17,03,00,0.30
2008,02,17,03,01,0.30
2008,02,17,03,02,0.30
2008,02,17,03,03,0.30
2008,02,17,03,04,0.30
2008,02,17,03,05,0.30
2008,02,17,03,06,0.30
2008,02,17,03,07,0.30
2008,02,17,03,08,0.30
2008,02,17,03,09,0.30
2008,02,17,03,10,0.40
2008,02,17,03,11,0.40
2008,02,17,03,12,0.40
2008,02,17,03,13,0.30
2008,02,17,03,14,0.30
2008,02,17,03,15,0.30
2008,02,17,03,16,0.30
2008,02,17,03,17,0.20
2008,02,17,03,18,0.20
2008,02,17,03,19,0.20
2008,02,17,03,20,0.10
2008,02,17,03,21,0.10
2008,02,17,03,22,0.00
2008,02,17,03,23,0.00
2008,02,17,03,24,0.00
2008,02,17,03,25,0.00
2008,02,17,03,26,-0.10
2008,02,17,03,27,0.00
2008,02,17,03,28,0.00
2008,02,17,03,29,0.00
2008,02,17,03,30,0.00
2008,02,17,03,31,0.00
2008,02,17,03,32,0.00
2008,02,17,03,33,0.00
2008,02,17,03,34,0.00
2008,02,17,03,35,-0.10
2008,02,17,03,36,-0.10
2008,02,17,03,37,0.00
2008,02,17,03,38,0.00
2008,02,17,03,39,0.00
2008,02,17,03,40,0.00
2008,02,17,03,41,0.00
2008,02,17,03,42,0.10
2008,02,17,03,43,0.00
2008,02,17,03,44,0.00
2008,02,17,03,45,0.00
2008,02,17,03,46,0.00
2008,02,17,03,47,0.00
2008,02,17,03,48,0.10
2008,02,17,03,49,0.10
2008,02,17,03,50,0.10
2008,02,17,03,51,0.10
2008,02,17,03,52,0.10
2008,02,17,03,53,0.10
2008,02,17,03,54,0.10
2008,02,17,03,55,0.10
2008,02,17,03,56,0.10
2008,02,17,03,57,0.10
2008,02,17,03,58,0.10
2008,02,17,03,59,0.10
2008,02,17,04,00,0.10
2008,02,17,04,01,0.10
2008,02,17,04,02,0.10
2008,02,17,04,03,0.10
2008,02,17,04,04,0.10
2008,02,17,04,05,0.10
2008,02,17,04,06,0.10
2008,02,17,04,07,0.10
2008,02,17,04,08,0.10
2008,02,17,04,09,0.10
2008,02,17,04,10,0.10
2008,02,17,04,11,0.10
2008,02,17,04,12,0.10
2008,02,17,04,13,0.10
2008,02,17,04,14,0.20
2008,02,17,04,15,0.20
2008,02,17,04,16,0.10
2008,02,17,04,17,0.10
2008,02,17,04,18,0.20
2008,02,17,04,19,0.20
2008,02,17,04,20,0.20
2008,02,17,04,21,0.20
2008,02,17,04,22,0.20
2008,02,17,04,23,0.20
2008,02,17,04,24,0.20
2008,02,17,04,25,0.20
2008,02,17,04,26,0.20
2008,02,17,04,27,0.20
2008,02,17,04,28,0.20
2008,02,17,04,29,0.20
2008,02,17,04,30,0.30
2008,02,17,04,31,0.30
2008,02,17,04,32,0.30
2008,02,17,04,33,0.30
2008,02,17,04,34,0.30
2008,02,17,04,35,0.30
2008,02,17,04,36,0.30
2008,02,17,04,37,0.30
2008,02,17,04,38,0.30
2008,02,17,04,39,0.30
2008,02,17,04,40,0.40
2008,02,17,04,41,0.40
2008,02,17,04,42,0.40
2008,02,17,04,43,0.40
2008,02,17,04,44,0.40
2008,02,17,04,45,0.40
2008,02,17,04,46,0.40
2008,02,17,04,47,0.40
2008,02,17,04,48,0.40
2008,02,17,04,49,0.30
2008,02,17,04,50,0.30
2008,02,17,04,51,0.30
2008,02,17,04,52,0.30
2008,02,17,04,53,0.40
2008,02,17,04,54,0.40
2008,02,17,04,55,0.40
2008,02,17,04,56,0.40
2008,02,17,04,57,0.40
2008,02,17,04,58,0.40
2008,02,17,04,59,0.40
2008,02,17,05,00,0.40
2008,02,17,05,01,0.40
2008,02,17,05,02,0.40
2008,02,17,05,03,0.40
2008,02,17,05,04,0.40
2008,02,17,05,05,0.40
2008,02,17,05,06,0.40
2008,02,17,05,07,0.40
2008,02,17,05,08,0.40
2008,02,17,05,09,0.30
2008,02,17,05,10,0.30
2008,02,17,05,11,0.30
2008,02,17,05,12,0.30
2008,02,17,05,13,0.30
2008,02,17,05,14,0.30
2008,02,17,05,15,0.30
2008,02,17,05,16,0.30
2008,02,17,05,17,0.30
2008,02,17,05,18,0.30
2008,02,17,05,19,0.30
2008,02,17,05,20,0.30
2008,02,17,05,21,0.30
2008,02,17,05,22,0.30
2008,02,17,05,23,0.30
2008,02,17,05,24,0.30
2008,02,17,05,25,0.30
2008,02,17,05,26,0.30
2008,02,17,05,27,0.30
2008,02,17,05,28,0.30
2008,02,17,05,29,0.30
2008,02,17,05,30,0.30
2008,02,17,05,31,0.40
2008,02,17,05,32,0.40
2008,02,17,05,33,0.40
2008,02,17,05,34,0.40
2008,02,17,05,35,0.40
2008,02,17,05,36,0.40
2008,02,17,05,37,0.40
2008,02,17,05,38,0.40
2008,02,17,05,39,0.30
2008,02,17,05,40,0.30
2008,02,17,05,41,0.30
2008,02,17,05,42,0.30
2008,02,17,05,43,0.30
2008,02,17,05,44,0.30
2008,02,17,05,45,0.30
2008,02,17,05,46,0.30
2008,02,17,05,47,0.30
2008,02,17,05,48,0.30
2008,02,17,05,49,0.30
2008,02,17,05,50,0.30
2008,02,17,05,51,0.30
2008,02,17,05,52,0.30
2008,02,17,05,53,0.30
2008,02,17,05,54,0.30
2008,02,17,05,55,0.30
2008,02,17,05,56,0.30
2008,02,17,05,57,0.30
2008,02,17,05,58,0.30
2008,02,17,05,59,0.30
2008,02,17,06,00,0.30
2008,02,17,06,01,0.30
2008,02,17,06,02,0.30
2008,02,17,06,03,0.30
2008,02,17,06,04,0.30
2008,02,17,06,05,0.30
2008,02,17,06,06,0.30
2008,02,17,06,07,0.30
2008,02,17,06,08,0.30
2008,02,17,06,09,0.30
2008,02,17,06,10,0.30
2008,02,17,06,11,0.30
2008,02,17,06,12,0.30
2008,02,17,06,13,0.30
2008,02,17,06,14,0.30
2008,02,17,06,15,0.30
2008,02,17,06,16,0.30
2008,02,17,06,17,0.30
2008,02,17,06,18,0.30
2008,02,17,06,19,0.30
2008,02,17,06,20,0.40
2008,02,17,06,21,0.50
2008,02,17,06,22,0.50
2008,02,17,06,23,0.60
2008,02,17,06,24,0.60
2008,02,17,06,25,0.70
2008,02,17,06,26,0.70
2008,02,17,06,27,0.70
2008,02,17,06,28,0.80
2008,02,17,06,29,0.80
2008,02,17,06,30,0.90
2008,02,17,06,31,0.90
2008,02,17,06,32,1.00
2008,02,17,06,33,1.00
2008,02,17,06,34,1.10
2008,02,17,06,35,1.10
2008,02,17,06,36,1.10
2008,02,17,06,37,1.10
2008,02,17,06,38,1.20
2008,02,17,06,39,1.20
2008,02,17,06,40,1.20
2008,02,17,06,41,1.20
2008,02,17,06,42,1.20
2008,02,17,06,43,1.30
2008,02,17,06,44,1.30
2008,02,17,06,45,1.30
2008,02,17,06,46,1.30
2008,02,17,06,47,1.30
2008,02,17,06,48,1.30
2008,02,17,06,49,1.30
2008,02,17,06,50,1.30
2008,02,17,06,51,1.30
2008,02,17,06,52,1.30
2008,02,17,06,53,1.30
2008,02,17,06,54,1.30
2008,02,17,06,55,1.30
2008,02,17,06,56,1.30
2008,02,17,06,57,1.30
2008,02,17,06,58,1.30
2008,02,17,06,59,1.30
2008,02,17,07,00,1.20
2008,02,17,07,01,1.20
2008,02,17,07,02,1.20
2008,02,17,07,03,1.10
2008,02,17,07,04,1.10
2008,02,17,07,05,1.00
2008,02,17,07,06,1.00
2008,02,17,07,07,0.90
2008,02,17,07,08,0.90
2008,02,17,07,09,0.90
2008,02,17,07,10,0.80
2008,02,17,07,11,0.80
2008,02,17,07,12,0.80
2008,02,17,07,13,0.80
2008,02,17,07,14,0.80
2008,02,17,07,15,0.70
2008,02,17,07,16,0.70
2008,02,17,07,17,0.70
2008,02,17,07,18,0.60
2008,02,17,07,19,0.60
2008,02,17,07,20,0.60
2008,02,17,07,21,0.50
2008,02,17,07,22,0.50
2008,02,17,07,23,0.50
2008,02,17,07,24,0.50
2008,02,17,07,25,0.40
2008,02,17,07,26,0.40
2008,02,17,07,27,0.40
2008,02,17,07,28,0.30
2008,02,17,07,29,0.30
2008,02,17,07,30,0.30
2008,02,17,07,31,0.30
2008,02,17,07,32,0.30
2008,02,17,07,33,0.30
2008,02,17,07,34,0.20
2008,02,17,07,35,0.20
2008,02,17,07,36,0.20
2008,02,17,07,37,0.20
2008,02,17,07,38,0.20
2008,02,17,07,39,0.20
2008,02,17,07,40,0.20
2008,02,17,07,41,0.20
2008,02,17,07,42,0.20
2008,02,17,07,43,0.20
2008,02,17,07,44,0.20
2008,02,17,07,45,0.20
2008,02,17,07,46,0.20
2008,02,17,07,47,0.20
2008,02,17,07,48,0.20
2008,02,17,07,49,0.20
2008,02,17,07,50,0.20
2008,02,17,07,51,0.20
2008,02,17,07,52,0.20
2008,02,17,07,53,0.30
2008,02,17,07,54,0.30
2008,02,17,07,55,0.30
2008,02,17,07,56,0.30
2008,02,17,07,57,0.30
2008,02,17,07,58,0.40
2008,02,17,07,59,0.40
2008,02,17,08,00,0.40
2008,02,17,08,01,0.50
2008,02,17,08,02,0.50
2008,02,17,08,03,0.60
2008,02,17,08,04,0.60
2008,02,17,08,05,0.60
2008,02,17,08,06,0.70
2008,02,17,08,07,0.70
2008,02,17,08,08,0.70
2008,02,17,08,09,0.70
2008,02,17,08,10,0.70
2008,02,17,08,11,0.70
2008,02,17,08,12,0.70
2008,02,17,08,13,0.70
2008,02,17,08,14,0.70
2008,02,17,08,15,0.70
2008,02,17,08,16,0.70
2008,02,17,08,17,0.80
2008,02,17,08,18,0.80
2008,02,17,08,19,0.80
2008,02,17,08,20,0.80
2008,02,17,08,21,0.80
2008,02,17,08,22,0.80
2008,02,17,08,23,0.80
2008,02,17,08,24,0.80
2008,02,17,08,25,0.80
2008,02,17,08,26,0.80
2008,02,17,08,27,0.80
2008,02,17,08,28,0.90
2008,02,17,08,29,0.90
2008,02,17,08,30,0.90
2008,02,17,08,31,0.90
2008,02,17,08,32,0.90
2008,02,17,08,33,0.90
2008,02,17,08,34,0.90
2008,02,17,08,35,0.90
2008,02,17,08,36,0.90
2008,02,17,08,37,0.90
2008,02,17,08,38,0.90
2008,02,17,08,39,0.90
2008,02,17,08,40,0.90
2008,02,17,08,41,0.90
2008,02,17,08,42,0.90
2008,02,17,08,43,0.90
2008,02,17,08,44,0.90
2008,02,17,08,45,0.90
2008,02,17,08,46,0.90
2008,02,17,08,47,0.90
2008,02,17,08,48,0.90
2008,02,17,08,49,0.90
2008,02,17,08,50,0.90
2008,02,17,08,51,1.00
2008,02,17,08,52,1.00
2008,02,17,08,53,1.00
2008,02,17,08,54,1.00
2008,02,17,08,55,1.00
2008,02,17,08,56,1.00
2008,02,17,08,57,1.10
2008,02,17,08,58,1.10
2008,02,17,08,59,1.10
2008,02,17,09,00,1.10
2008,02,17,09,01,1.20
2008,02,17,09,02,1.20
2008,02,17,09,03,1.20
2008,02,17,09,04,1.30
2008,02,17,09,05,1.30
2008,02,17,09,06,1.30
2008,02,17,09,07,1.30
2008,02,17,09,08,1.40
2008,02,17,09,09,1.40
2008,02,17,09,10,1.50
2008,02,17,09,11,1.60
2008,02,17,09,12,1.60
2008,02,17,09,13,1.60
2008,02,17,09,14,1.60
2008,02,17,09,15,1.60
2008,02,17,09,16,1.60
2008,02,17,09,17,1.60
2008,02,17,09,18,1.50
2008,02,17,09,19,1.50
2008,02,17,09,20,1.60
2008,02,17,09,21,1.60
2008,02,17,09,22,1.60
2008,02,17,09,23,1.60
2008,02,17,09,24,1.60
2008,02,17,09,25,1.60
2008,02,17,09,26,1.60
2008,02,17,09,27,1.70
2008,02,17,09,28,1.70
2008,02,17,09,29,1.70
2008,02,17,09,30,1.80
2008,02,17,09,31,1.80
2008,02,17,09,32,1.80
2008,02,17,09,33,1.80
2008,02,17,09,34,1.90
2008,02,17,09,35,2.00
2008,02,17,09,36,2.00
2008,02,17,09,37,2.10
2008,02,17,09,38,2.10
2008,02,17,09,39,2.20
2008,02,17,09,40,2.30
2008,02,17,09,41,2.30
2008,02,17,09,42,2.30
2008,02,17,09,43,2.40
2008,02,17,09,44,2.50
2008,02,17,09,45,2.50
2008,02,17,09,46,2.60
2008,02,17,09,47,2.70
2008,02,17,09,48,2.70
2008,02,17,09,49,2.80
2008,02,17,09,50,2.80
2008,02,17,09,51,2.90
2008,02,17,09,52,3.00
2008,02,17,09,53,3.00
2008,02,17,09,54,3.10
2008,02,17,09,55,3.10
2008,02,17,09,56,3.20
2008,02,17,09,57,3.20
2008,02,17,09,58,3.30
2008,02,17,09,59,3.40
2008,02,17,10,00,3.40
2008,02,17,10,01,3.50
2008,02,17,10,02,3.60
2008,02,17,10,03,3.60
2008,02,17,10,04,3.70
2008,02,17,10,05,3.80
2008,02,17,10,06,3.80
2008,02,17,10,07,3.90
2008,02,17,10,08,4.00
2008,02,17,10,09,4.00
2008,02,17,10,10,4.10
2008,02,17,10,11,4.20
2008,02,17,10,12,4.20
2008,02,17,10,13,4.30
2008,02,17,10,14,4.30
2008,02,17,10,15,4.40
2008,02,17,10,16,4.40
2008,02,17,10,17,4.50
2008,02,17,10,18,4.50
2008,02,17,10,19,4.50
2008,02,17,10,20,4.50
2008,02,17,10,21,4.60
2008,02,17,10,22,4.60
2008,02,17,10,23,4.70
2008,02,17,10,24,4.80
2008,02,17,10,25,4.90
2008,02,17,10,26,5.00
2008,02,17,10,27,5.10
2008,02,17,10,28,5.10
2008,02,17,10,29,5.20
2008,02,17,10,30,5.30
2008,02,17,10,31,5.30
2008,02,17,10,32,5.40
2008,02,17,10,33,5.40
2008,02,17,10,34,5.50
2008,02,17,10,35,5.50
2008,02,17,10,36,5.50
2008,02,17,10,37,5.50
2008,02,17,10,38,5.50
2008,02,17,10,39,5.50
2008,02,17,10,40,5.50
2008,02,17,10,41,5.60
2008,02,17,10,42,5.80
2008,02,17,10,43,5.80
2008,02,17,10,44,5.90
2008,02,17,10,45,6.00
2008,02,17,10,46,6.00
2008,02,17,10,47,6.00
2008,02,17,10,48,6.00
2008,02,17,10,49,6.10
2008,02,17,10,50,6.10
2008,02,17,10,51,6.10
2008,02,17,10,52,6.10
2008,02,17,10,53,6.20
2008,02,17,10,54,6.20
2008,02,17,10,55,6.20
2008,02,17,10,56,6.20
2008,02,17,10,57,6.20
2008,02,17,10,58,6.20
2008,02,17,10,59,6.20
2008,02,17,11,00,6.20
2008,02,17,11,01,6.20
2008,02,17,11,02,6.20
2008,02,17,11,03,6.20
2008,02,17,11,04,6.30
2008,02,17,11,05,6.30
2008,02,17,11,06,6.30
2008,02,17,11,07,6.40
2008,02,17,11,08,6.40
2008,02,17,11,09,6.50
2008,02,17,11,10,6.50
2008,02,17,11,11,6.50
2008,02,17,11,12,6.60
2008,02,17,11,13,6.60
2008,02,17,11,14,6.70
2008,02,17,11,15,6.70
2008,02,17,11,16,6.70
2008,02,17,11,17,6.70
2008,02,17,11,18,6.70
2008,02,17,11,19,6.70
2008,02,17,11,20,6.60
2008,02,17,11,21,6.60
2008,02,17,11,22,6.60
2008,02,17,11,23,6.70
2008,02,17,11,24,6.70
2008,02,17,11,25,6.70
2008,02,17,11,26,6.70
2008,02,17,11,27,6.70
2008,02,17,11,28,6.70
2008,02,17,11,29,6.70
2008,02,17,11,30,6.70
2008,02,17,11,31,6.80
2008,02,17,11,32,6.80
2008,02,17,11,33,6.90
2008,02,17,11,34,6.90
2008,02,17,11,35,6.90
2008,02,17,11,36,7.10
2008,02,17,11,37,7.20
2008,02,17,11,38,7.20
2008,02,17,11,39,7.20
2008,02,17,11,40,7.20
2008,02,17,11,41,7.20
2008,02,17,11,42,7.20
2008,02,17,11,43,7.20
2008,02,17,11,44,7.20
2008,02,17,11,45,7.00
2008,02,17,11,46,6.90
2008,02,17,11,47,6.90
2008,02,17,11,48,6.80
2008,02,17,11,49,6.80
2008,02,17,11,50,6.80
2008,02,17,11,51,6.90
2008,02,17,11,52,6.90
2008,02,17,11,53,7.00
2008,02,17,11,54,7.10
2008,02,17,11,55,7.20
2008,02,17,11,56,7.20
2008,02,17,11,57,7.10
2008,02,17,11,58,7.10
2008,02,17,11,59,7.00
2008,02,17,12,00,7.10
2008,02,17,12,01,7.10
2008,02,17,12,02,7.20
2008,02,17,12,03,7.20
2008,02,17,12,04,7.20
2008,02,17,12,05,7.30
2008,02,17,12,06,7.30
2008,02,17,12,07,7.30
2008,02,17,12,08,7.30
2008,02,17,12,09,7.20
2008,02,17,12,10,7.30
2008,02,17,12,11,7.30
2008,02,17,12,12,7.30
2008,02,17,12,13,7.30
2008,02,17,12,14,7.40
2008,02,17,12,15,7.40
2008,02,17,12,16,7.50
2008,02,17,12,17,7.60
2008,02,17,12,18,7.60
2008,02,17,12,19,7.60
2008,02,17,12,20,7.60
2008,02,17,12,21,7.70
2008,02,17,12,22,7.70
2008,02,17,12,23,7.70
2008,02,17,12,24,7.70
2008,02,17,12,25,7.70
2008,02,17,12,26,7.70
2008,02,17,12,27,7.70
2008,02,17,12,28,7.70
2008,02,17,12,29,7.70
2008,02,17,12,30,7.70
2008,02,17,12,31,7.70
2008,02,17,12,32,7.70
2008,02,17,12,33,7.70
2008,02,17,12,34,7.70
2008,02,17,12,35,7.70
2008,02,17,12,36,7.70
2008,02,17,12,37,7.80
2008,02,17,12,38,7.80
2008,02,17,12,39,7.90
2008,02,17,12,40,7.90
2008,02,17,12,41,7.90
2008,02,17,12,42,8.00
2008,02,17,12,43,8.00
2008,02,17,12,44,8.00
2008,02,17,12,45,8.00
2008,02,17,12,46,7.90
2008,02,17,12,47,7.80
2008,02,17,12,48,7.80
2008,02,17,12,49,7.80
2008,02,17,12,50,7.90
2008,02,17,12,51,7.90
2008,02,17,12,52,8.00
2008,02,17,12,53,8.20
2008,02,17,12,54,8.30
2008,02,17,12,55,8.40
2008,02,17,12,56,8.60
2008,02,17,12,57,8.70
2008,02,17,12,58,8.70
2008,02,17,12,59,8.80
2008,02,17,13,00,8.80
2008,02,17,13,01,8.80
2008,02,17,13,02,8.80
2008,02,17,13,03,8.80
2008,02,17,13,04,8.80
2008,02,17,13,05,8.80
2008,02,17,13,06,8.70
2008,02,17,13,07,8.70
2008,02,17,13,08,8.60
2008,02,17,13,09,8.60
2008,02,17,13,10,8.60
2008,02,17,13,11,8.60
2008,02,17,13,12,8.50
2008,02,17,13,13,8.50
2008,02,17,13,14,8.40
2008,02,17,13,15,8.40
2008,02,17,13,16,8.40
2008,02,17,13,17,8.40
2008,02,17,13,18,8.40
2008,02,17,13,19,8.40
2008,02,17,13,20,8.40
2008,02,17,13,21,8.40
2008,02,17,13,22,8.40
2008,02,17,13,23,8.40
2008,02,17,13,24,8.40
2008,02,17,13,25,8.40
2008,02,17,13,26,8.40
2008,02,17,13,27,8.50
2008,02,17,13,28,8.40
2008,02,17,13,29,8.30
2008,02,17,13,30,8.20
2008,02,17,13,31,8.20
2008,02,17,13,32,8.10
2008,02,17,13,33,8.10
2008,02,17,13,34,8.10
2008,02,17,13,35,8.10
2008,02,17,13,36,8.10
2008,02,17,13,37,8.20
2008,02,17,13,38,8.20
2008,02,17,13,39,8.30
2008,02,17,13,40,8.30
2008,02,17,13,41,8.30
2008,02,17,13,42,8.30
2008,02,17,13,43,8.30
2008,02,17,13,44,8.40
2008,02,17,13,45,8.40
2008,02,17,13,46,8.40
2008,02,17,13,47,8.40
2008,02,17,13,48,8.40
2008,02,17,13,49,8.50
2008,02,17,13,50,8.60
2008,02,17,13,51,8.60
2008,02,17,13,52,8.70
2008,02,17,13,53,8.70
2008,02,17,13,54,8.70
2008,02,17,13,55,8.70
2008,02,17,13,56,8.70
2008,02,17,13,57,8.70
2008,02,17,13,58,8.70
2008,02,17,13,59,8.60
2008,02,17,14,00,8.60
2008,02,17,14,01,8.60
2008,02,17,14,02,8.60
2008,02,17,14,03,8.60
2008,02,17,14,04,8.60
2008,02,17,14,05,8.60
2008,02,17,14,06,8.50
2008,02,17,14,07,8.50
2008,02,17,14,08,8.50
2008,02,17,14,09,8.40
2008,02,17,14,10,8.40
2008,02,17,14,11,8.40
2008,02,17,14,12,8.40
2008,02,17,14,13,8.40
2008,02,17,14,14,8.40
2008,02,17,14,15,8.40
2008,02,17,14,16,8.40
2008,02,17,14,17,8.40
2008,02,17,14,18,8.40
2008,02,17,14,19,8.50
2008,02,17,14,20,8.50
2008,02,17,14,21,8.60
2008,02,17,14,22,8.60
2008,02,17,14,23,8.70
2008,02,17,14,24,8.80
2008,02,17,14,25,8.80
2008,02,17,14,26,8.80
2008,02,17,14,27,8.80
2008,02,17,14,28,8.80
2008,02,17,14,29,8.80
2008,02,17,14,30,8.90
2008,02,17,14,31,8.90
2008,02,17,14,32,8.90
2008,02,17,14,33,8.80
2008,02,17,14,34,8.80
2008,02,17,14,35,8.70
2008,02,17,14,36,8.70
2008,02,17,14,37,8.70
2008,02,17,14,38,8.70
2008,02,17,14,39,8.80
2008,02,17,14,40,8.80
2008,02,17,14,41,8.80
2008,02,17,14,42,8.80
2008,02,17,14,43,8.80
2008,02,17,14,44,8.90
2008,02,17,14,45,8.90
2008,02,17,14,46,9.00
2008,02,17,14,47,9.00
2008,02,17,14,48,9.00
2008,02,17,14,49,8.90
2008,02,17,14,50,8.90
2008,02,17,14,51,8.80
2008,02,17,14,52,8.80
2008,02,17,14,53,8.80
2008,02,17,14,54,8.80
2008,02,17,14,55,8.80
2008,02,17,14,56,8.80
2008,02,17,14,57,8.90
2008,02,17,14,58,8.90
2008,02,17,14,59,8.90
2008,02,17,15,00,9.00
2008,02,17,15,01,9.00
2008,02,17,15,02,9.10
2008,02,17,15,03,9.10
2008,02,17,15,04,9.10
2008,02,17,15,05,9.20
2008,02,17,15,06,9.20
2008,02,17,15,07,9.20
2008,02,17,15,08,9.30
2008,02,17,15,09,9.30
2008,02,17,15,10,9.40
2008,02,17,15,11,9.50
2008,02,17,15,12,9.60
2008,02,17,15,13,9.60
2008,02,17,15,14,9.70
2008,02,17,15,15,9.70
2008,02,17,15,16,9.60
2008,02,17,15,17,9.60
2008,02,17,15,18,9.60
2008,02,17,15,19,9.60
2008,02,17,15,20,9.60
2008,02,17,15,21,9.60
2008,02,17,15,22,9.60
2008,02,17,15,23,9.60
2008,02,17,15,24,9.60
2008,02,17,15,25,9.50
2008,02,17,15,26,9.50
2008,02,17,15,27,9.40
2008,02,17,15,28,9.40
2008,02,17,15,29,9.30
2008,02,17,15,30,9.30
2008,02,17,15,31,9.30
2008,02,17,15,32,9.30
2008,02,17,15,33,9.30
2008,02,17,15,34,9.30
2008,02,17,15,35,9.30
2008,02,17,15,36,9.30
2008,02,17,15,37,9.30
2008,02,17,15,38,9.30
2008,02,17,15,39,9.30
2008,02,17,15,40,9.30
2008,02,17,15,41,9.30
2008,02,17,15,42,9.30
2008,02,17,15,43,9.20
2008,02,17,15,44,9.20
2008,02,17,15,45,9.10
2008,02,17,15,46,9.10
2008,02,17,15,47,9.10
2008,02,17,15,48,9.10
2008,02,17,15,49,9.10
2008,02,17,15,50,9.10
2008,02,17,15,51,9.10
2008,02,17,15,52,9.10
2008,02,17,15,53,9.10
2008,02,17,15,54,9.10
2008,02,17,15,55,9.10
2008,02,17,15,56,9.10
2008,02,17,15,57,9.10
2008,02,17,15,58,9.10
2008,02,17,15,59,9.00
2008,02,17,16,00,8.90
2008,02,17,16,01,8.90
2008,02,17,16,02,8.90
2008,02,17,16,03,8.90
2008,02,17,16,04,8.80
2008,02,17,16,05,8.80
2008,02,17,16,06,8.80
2008,02,17,16,07,8.80
2008,02,17,16,08,8.80
2008,02,17,16,09,8.80
2008,02,17,16,10,8.80
2008,02,17,16,11,8.80
2008,02,17,16,12,8.80
2008,02,17,16,13,8.80
2008,02,17,16,14,8.80
2008,02,17,16,15,8.80
2008,02,17,16,16,8.80
2008,02,17,16,17,8.80
2008,02,17,16,18,8.80
2008,02,17,16,19,8.80
2008,02,17,16,20,8.80
2008,02,17,16,21,8.80
2008,02,17,16,22,8.80
2008,02,17,16,23,8.80
2008,02,17,16,24,8.80
2008,02,17,16,25,8.80
2008,02,17,16,26,8.80
2008,02,17,16,27,8.80
2008,02,17,16,28,8.80
2008,02,17,16,29,8.80
2008,02,17,16,30,8.80
2008,02,17,16,31,8.80
2008,02,17,16,32,8.80
2008,02,17,16,33,8.80
2008,02,17,16,34,8.80
2008,02,17,16,35,8.80
2008,02,17,16,36,8.80
2008,02,17,16,37,8.70
2008,02,17,16,38,8.70
2008,02,17,16,39,8.70
2008,02,17,16,40,8.70
2008,02,17,16,41,8.70
2008,02,17,16,42,8.70
2008,02,17,16,43,8.70
2008,02,17,16,44,8.70
2008,02,17,16,45,8.70
2008,02,17,16,46,8.70
2008,02,17,16,47,8.70
2008,02,17,16,48,8.70
2008,02,17,16,49,8.70
2008,02,17,16,50,8.60
2008,02,17,16,51,8.60
2008,02,17,16,52,8.60
2008,02,17,16,53,8.60
2008,02,17,16,54,8.60
2008,02,17,16,55,8.60
2008,02,17,16,56,8.60
2008,02,17,16,57,8.50
2008,02,17,16,58,8.50
2008,02,17,16,59,8.50
2008,02,17,17,00,8.40
2008,02,17,17,01,8.40
2008,02,17,17,02,8.40
2008,02,17,17,03,8.40
2008,02,17,17,04,8.30
2008,02,17,17,05,8.30
2008,02,17,17,06,8.30
2008,02,17,17,07,8.30
2008,02,17,17,08,8.30
2008,02,17,17,09,8.30
2008,02,17,17,10,8.20
2008,02,17,17,11,8.20
2008,02,17,17,12,8.20
2008,02,17,17,13,8.20
2008,02,17,17,14,8.10
2008,02,17,17,15,8.10
2008,02,17,17,16,8.10
2008,02,17,17,17,8.00
2008,02,17,17,18,8.00
2008,02,17,17,19,7.90
2008,02,17,17,20,7.90
2008,02,17,17,21,7.90
2008,02,17,17,22,7.80
2008,02,17,17,23,7.80
2008,02,17,17,24,7.80
2008,02,17,17,25,7.80
2008,02,17,17,26,7.70
2008,02,17,17,27,7.70
2008,02,17,17,28,7.70
2008,02,17,17,29,7.70
2008,02,17,17,30,7.60
2008,02,17,17,31,7.60
2008,02,17,17,32,7.60
2008,02,17,17,33,7.60
2008,02,17,17,34,7.60
2008,02,17,17,35,7.50
2008,02,17,17,36,7.50
2008,02,17,17,37,7.50
2008,02,17,17,38,7.40
2008,02,17,17,39,7.40
2008,02,17,17,40,7.30
2008,02,17,17,41,7.30
2008,02,17,17,42,7.30
2008,02,17,17,43,7.20
2008,02,17,17,44,7.20
2008,02,17,17,45,7.10
2008,02,17,17,46,7.10
2008,02,17,17,47,7.00
2008,02,17,17,48,7.00
2008,02,17,17,49,7.00
2008,02,17,17,50,6.90
2008,02,17,17,51,6.80
2008,02,17,17,52,6.80
2008,02,17,17,53,6.80
2008,02,17,17,54,6.70
2008,02,17,17,55,6.70
2008,02,17,17,56,6.70
2008,02,17,17,57,6.70
2008,02,17,17,58,6.60
2008,02,17,17,59,6.60
2008,02,17,18,00,6.60
2008,02,17,18,01,6.50
2008,02,17,18,02,6.50
2008,02,17,18,03,6.40
2008,02,17,18,04,6.40
2008,02,17,18,05,6.30
2008,02,17,18,06,6.30